contact:dominique.lefevre@mio.osupytheas.fr, maurice.libes@osupytheas.fr, didier.mallarino@osupytheas.fr
Project:EMSO http://www.emso-fr.org/EMSO-France
Depth: 2436.0 m
Title:EMSO Ligure Ouest : Data MII capteur AQUADOPP
Date,Latitude,Longitude,X_East,Y_North,Z_Up,Amplitude_X,Amplitude_Y,Amplitude_Z,Batterie,SoundSpeed,Heading,Pitch,Roll,Pressure,TIS,Speed,Direction
, degrees North, degrees East, m.s-1, m.s-1,m.s-1, 1, 1, 1, Volt, m.s-1, degree, degree, degree, dbar, degree_C, m.s-1, degree
2020-07-20T00:04:03,42.805,6.029,-0.01,-0.001,-0.002,105.0,110.0,101.0,13.4,1505.3,326.6,-0.7,1.8,2470.379,13.33,0.01,264.3
2020-07-20T00:07:03,42.805,6.029,-0.023,-0.001,-0.027,108.0,109.0,101.0,13.4,1505.4,324.2,-0.7,1.8,2470.37,13.34,0.023,267.5
2020-07-20T00:10:03,42.805,6.029,-0.021,0.014,-0.006,103.0,109.0,102.0,13.3,1505.4,324.5,-0.7,1.8,2470.41,13.34,0.025,303.7
2020-07-20T00:13:03,42.805,6.029,-0.061,0.014,-0.046,103.0,110.0,101.0,13.4,1505.4,325.3,-0.7,1.8,2470.368,13.35,0.062,282.9
2020-07-20T00:16:03,42.805,6.029,-0.029,0.018,0.0,102.0,110.0,102.0,13.4,1505.4,323.9,-0.7,1.8,2470.353,13.35,0.034,301.8
2020-07-20T00:19:03,42.805,6.029,-0.035,0.019,-0.019,104.0,109.0,102.0,13.3,1505.4,326.6,-0.7,1.8,2470.345,13.35,0.039,298.5
2020-07-20T00:22:03,42.805,6.029,-0.045,0.015,-0.039,103.0,109.0,102.0,13.4,1505.4,327.2,-0.7,1.8,2470.355,13.35,0.047,288.4
2020-07-20T00:25:03,42.805,6.029,-0.028,0.014,-0.067,105.0,109.0,100.0,13.3,1505.4,323.2,-0.7,1.8,2470.368,13.35,0.031,296.6
2020-07-20T00:28:03,42.805,6.029,-0.042,0.006,-0.013,104.0,108.0,100.0,13.4,1505.4,324.5,-0.7,1.8,2470.365,13.35,0.042,278.1
2020-07-20T00:31:03,42.805,6.029,-0.054,0.011,-0.052,104.0,108.0,100.0,13.3,1505.4,323.5,-0.7,1.8,2470.383,13.35,0.055,281.5
2020-07-20T00:34:03,42.805,6.029,-0.014,0.005,-0.017,105.0,109.0,100.0,13.3,1505.4,326.2,-0.7,1.9,2470.309,13.35,0.014,289.6
2020-07-20T00:37:03,42.805,6.029,0.004,0.002,-0.041,105.0,108.0,101.0,13.4,1505.4,327.8,-0.7,1.8,2470.355,13.35,0.004,63.4
2020-07-20T00:40:03,42.805,6.029,0.018,-0.011,-0.041,104.0,109.0,102.0,13.4,1505.4,324.1,-0.7,1.8,2470.34,13.35,0.021,121.4
2020-07-20T00:43:03,42.805,6.029,-0.013,0.019,-0.021,102.0,110.0,102.0,13.4,1505.4,324.7,-0.7,1.8,2470.389,13.35,0.023,325.6
2020-07-20T00:46:03,42.805,6.029,-0.006,-0.014,-0.027,105.0,109.0,102.0,13.4,1505.4,327.6,-0.7,1.8,2470.344,13.35,0.015,203.2
2020-07-20T00:49:03,42.805,6.029,-0.006,0.011,-0.017,104.0,108.0,102.0,13.3,1505.4,326.5,-0.7,1.8,2470.287,13.35,0.012,331.4
2020-07-20T00:52:03,42.805,6.029,-0.013,0.025,0.013,103.0,108.0,100.0,13.3,1505.4,325.7,-0.7,1.8,2470.358,13.35,0.028,332.5
2020-07-20T00:55:03,42.805,6.029,-0.035,0.011,-0.003,104.0,108.0,102.0,13.4,1505.4,328.3,-0.7,1.8,2470.346,13.35,0.036,287.4
2020-07-20T00:58:03,42.805,6.029,-0.037,-0.009,-0.056,104.0,108.0,101.0,13.3,1505.4,323.5,-0.7,1.8,2470.335,13.35,0.038,256.3
2020-07-20T01:04:03,42.805,6.029,0.009,0.012,0.008,106.0,111.0,102.0,13.4,1505.3,325.1,-0.7,1.8,2470.359,13.33,0.015,36.9
2020-07-20T01:07:03,42.805,6.029,-0.018,0.003,-0.037,104.0,108.0,101.0,13.3,1505.4,324.4,-0.7,1.8,2470.365,13.34,0.018,279.5
2020-07-20T01:10:03,42.805,6.029,0.016,0.001,-0.002,105.0,107.0,102.0,13.4,1505.4,325.2,-0.7,1.9,2470.342,13.34,0.016,86.4
2020-07-20T01:13:03,42.805,6.029,0.0,0.025,0.013,102.0,106.0,102.0,13.4,1505.4,324.6,-0.7,1.8,2470.327,13.34,0.025,0.0
2020-07-20T01:16:03,42.805,6.029,0.019,0.004,0.0,104.0,107.0,101.0,13.4,1505.4,326.3,-0.7,1.8,2470.321,13.35,0.019,78.1
2020-07-20T01:19:03,42.805,6.029,0.007,0.002,0.017,105.0,106.0,102.0,13.4,1505.4,323.3,-0.7,1.8,2470.315,13.35,0.007,74.1
2020-07-20T01:22:03,42.805,6.029,0.045,0.004,0.032,103.0,106.0,100.0,13.4,1505.4,324.2,-0.7,1.8,2470.365,13.35,0.045,84.9
2020-07-20T01:25:03,42.805,6.029,0.013,0.003,0.018,103.0,108.0,101.0,13.4,1505.4,323.6,-0.7,1.8,2470.371,13.35,0.013,77.0
2020-07-20T01:28:03,42.805,6.029,0.02,0.005,0.029,105.0,109.0,100.0,13.4,1505.4,326.3,-0.7,1.8,2470.382,13.35,0.02,76.0
2020-07-20T01:31:03,42.805,6.029,0.019,0.0,0.007,103.0,108.0,101.0,13.3,1505.4,325.6,-0.7,1.8,2470.317,13.35,0.019,90.0
2020-07-20T01:34:03,42.805,6.029,0.005,0.002,0.015,103.0,107.0,101.0,13.4,1505.4,324.6,-0.7,1.8,2470.341,13.35,0.005,68.2
2020-07-20T01:37:03,42.805,6.029,0.007,0.0,0.009,105.0,106.0,102.0,13.3,1505.4,324.2,-0.7,1.8,2470.332,13.35,0.007,90.0
2020-07-20T01:40:03,42.805,6.029,0.026,0.005,-0.011,104.0,109.0,103.0,13.4,1505.4,327.3,-0.7,1.8,2470.346,13.34,0.026,79.1
2020-07-20T01:43:03,42.805,6.029,0.009,0.004,0.003,102.0,109.0,100.0,13.4,1505.4,324.1,-0.7,1.8,2470.361,13.34,0.009,66.0
2020-07-20T01:46:03,42.805,6.029,-0.008,0.0,-0.017,104.0,107.0,102.0,13.3,1505.4,325.8,-0.7,1.8,2470.307,13.34,0.008,270.0
2020-07-20T01:49:03,42.805,6.029,0.006,-0.016,0.007,103.0,108.0,102.0,13.4,1505.4,326.8,-0.7,1.8,2470.329,13.34,0.017,159.4
2020-07-20T01:52:03,42.805,6.029,0.032,-0.01,0.023,102.0,107.0,101.0,13.3,1505.4,324.7,-0.7,1.8,2470.278,13.34,0.033,107.4
2020-07-20T01:55:03,42.805,6.029,-0.004,0.006,-0.018,101.0,109.0,102.0,13.4,1505.4,324.5,-0.7,1.8,2470.33,13.34,0.007,326.3
2020-07-20T01:58:03,42.805,6.029,0.016,0.004,0.022,103.0,106.0,101.0,13.4,1505.4,326.7,-0.7,1.8,2470.3,13.34,0.016,76.0
2020-07-20T02:04:03,42.805,6.029,0.059,0.01,0.043,104.0,106.0,101.0,13.4,1505.3,326.6,-0.7,1.9,2470.375,13.33,0.059,80.4
2020-07-20T02:07:03,42.805,6.029,0.016,-0.01,-0.007,103.0,108.0,104.0,13.4,1505.3,325.6,-0.7,1.8,2470.348,13.33,0.018,122.0
2020-07-20T02:10:03,42.805,6.029,0.035,0.006,0.012,103.0,108.0,101.0,13.3,1505.4,327.1,-0.7,1.8,2470.329,13.34,0.035,80.3
2020-07-20T02:13:03,42.805,6.029,0.01,-0.013,0.017,104.0,107.0,101.0,13.4,1505.4,325.5,-0.7,1.8,2470.332,13.34,0.016,142.4
2020-07-20T02:16:03,42.805,6.029,0.015,0.003,-0.019,104.0,107.0,102.0,13.3,1505.4,326.6,-0.7,1.8,2470.357,13.34,0.015,78.7
2020-07-20T02:19:03,42.805,6.029,0.029,-0.001,0.006,103.0,108.0,101.0,13.4,1505.4,327.1,-0.7,1.8,2470.32,13.34,0.029,92.0
2020-07-20T02:22:03,42.805,6.029,0.023,-0.004,-0.013,103.0,107.0,100.0,13.4,1505.4,323.3,-0.8,1.8,2470.342,13.34,0.023,99.9
2020-07-20T02:25:03,42.805,6.029,0.011,-0.006,-0.03,103.0,108.0,101.0,13.4,1505.4,323.2,-0.7,1.8,2470.318,13.34,0.012,118.6
2020-07-20T02:28:03,42.805,6.029,-0.014,-0.005,0.008,103.0,108.0,102.0,13.4,1505.4,327.5,-0.7,1.8,2470.297,13.34,0.014,250.4
2020-07-20T02:31:02,42.805,6.029,0.03,-0.02,0.035,103.0,107.0,101.0,13.3,1505.4,326.1,-0.7,1.8,2470.325,13.34,0.036,123.7
2020-07-20T02:34:03,42.805,6.029,0.014,0.006,0.0,102.0,107.0,101.0,13.4,1505.4,328.1,-0.7,1.8,2470.333,13.34,0.015,66.8
2020-07-20T02:37:03,42.805,6.029,0.013,0.005,-0.018,104.0,109.0,101.0,13.4,1505.4,326.6,-0.7,1.9,2470.33,13.34,0.013,69.0
2020-07-20T02:40:03,42.805,6.029,-0.01,0.005,0.005,104.0,109.0,101.0,13.4,1505.4,327.7,-0.7,1.9,2470.368,13.34,0.011,296.6
2020-07-20T02:43:03,42.805,6.029,-0.004,-0.003,-0.012,104.0,106.0,102.0,13.3,1505.4,326.9,-0.7,1.9,2470.315,13.34,0.005,233.1
2020-07-20T02:46:03,42.805,6.029,-0.011,0.0,-0.03,103.0,109.0,101.0,13.3,1505.4,326.9,-0.7,1.8,2470.334,13.34,0.011,270.0
2020-07-20T02:49:03,42.805,6.029,-0.001,0.001,0.026,103.0,110.0,103.0,13.4,1505.4,325.9,-0.7,1.8,2470.369,13.34,0.001,315.0
2020-07-20T02:52:03,42.805,6.029,0.042,0.005,-0.003,104.0,109.0,101.0,13.3,1505.4,327.4,-0.7,1.8,2470.298,13.34,0.042,83.2
2020-07-20T02:55:03,42.805,6.029,-0.001,0.007,0.039,103.0,107.0,103.0,13.3,1505.4,326.4,-0.7,1.8,2470.307,13.34,0.007,351.9
2020-07-20T02:58:03,42.805,6.029,0.017,-0.009,-0.031,103.0,108.0,102.0,13.4,1505.4,325.8,-0.7,1.8,2470.326,13.34,0.019,117.9
2020-07-20T03:04:03,42.805,6.029,-0.026,0.013,-0.033,104.0,108.0,101.0,13.4,1505.3,326.2,-0.7,1.8,2470.361,13.32,0.029,296.6
2020-07-20T03:07:03,42.805,6.029,-0.027,0.002,-0.043,104.0,107.0,101.0,13.3,1505.3,327.4,-0.7,1.8,2470.377,13.33,0.027,274.2
2020-07-20T03:10:03,42.805,6.029,-0.004,0.004,-0.03,105.0,105.0,101.0,13.4,1505.3,326.1,-0.7,1.8,2470.332,13.33,0.005,315.0
2020-07-20T03:13:03,42.805,6.029,-0.033,0.001,-0.059,105.0,107.0,101.0,13.4,1505.3,326.5,-0.7,1.8,2470.368,13.33,0.033,271.7
2020-07-20T03:16:03,42.805,6.029,-0.022,0.002,-0.032,105.0,105.0,101.0,13.4,1505.3,326.4,-0.7,1.8,2470.356,13.33,0.022,275.2
2020-07-20T03:19:03,42.805,6.029,-0.039,0.004,-0.053,104.0,106.0,101.0,13.4,1505.3,325.1,-0.7,1.8,2470.365,13.33,0.039,275.9
2020-07-20T03:22:03,42.805,6.029,-0.018,-0.023,-0.03,106.0,105.0,101.0,13.4,1505.3,325.6,-0.7,1.8,2470.341,13.33,0.029,218.0
2020-07-20T03:25:03,42.805,6.029,-0.002,0.011,-0.043,104.0,106.0,101.0,13.4,1505.4,325.7,-0.7,1.8,2470.362,13.34,0.011,349.7
2020-07-20T03:28:03,42.805,6.029,-0.005,0.001,0.009,104.0,107.0,101.0,13.4,1505.3,324.8,-0.7,1.8,2470.379,13.33,0.005,281.3
2020-07-20T03:31:03,42.805,6.029,-0.041,-0.024,-0.048,104.0,108.0,102.0,13.4,1505.4,323.4,-0.7,1.8,2470.385,13.34,0.047,239.7
2020-07-20T03:34:03,42.805,6.029,-0.04,0.0,-0.012,102.0,107.0,102.0,13.3,1505.3,327.4,-0.7,1.8,2470.336,13.33,0.04,270.0
2020-07-20T03:37:03,42.805,6.029,-0.013,-0.008,-0.013,104.0,108.0,100.0,13.3,1505.3,324.6,-0.7,1.8,2470.345,13.33,0.015,238.4
2020-07-20T03:40:03,42.805,6.029,-0.026,0.01,-0.007,105.0,109.0,101.0,13.4,1505.3,324.6,-0.7,1.8,2470.368,13.33,0.027,291.0
2020-07-20T03:43:03,42.805,6.029,-0.016,-0.006,-0.023,104.0,108.0,101.0,13.4,1505.4,323.9,-0.7,1.8,2470.349,13.34,0.017,249.4
2020-07-20T03:46:02,42.805,6.029,-0.019,-0.01,-0.049,103.0,108.0,101.0,13.4,1505.3,325.8,-0.7,1.8,2470.365,13.33,0.021,242.2
2020-07-20T03:49:03,42.805,6.029,-0.024,0.0,-0.011,104.0,107.0,101.0,13.4,1505.3,324.1,-0.7,1.8,2470.352,13.33,0.024,270.0
2020-07-20T03:52:03,42.805,6.029,-0.006,-0.001,-0.018,103.0,108.0,102.0,13.4,1505.3,325.1,-0.7,1.9,2470.37,13.33,0.006,260.5
2020-07-20T03:55:03,42.805,6.029,0.0,-0.002,0.019,103.0,106.0,101.0,13.3,1505.3,328.4,-0.7,1.9,2470.351,13.33,0.002,180.0
2020-07-20T03:58:03,42.805,6.029,-0.03,-0.003,-0.008,103.0,107.0,101.0,13.4,1505.3,326.9,-0.7,1.9,2470.411,13.33,0.03,264.3
2020-07-20T04:04:03,42.805,6.029,0.005,0.022,0.028,103.0,107.0,101.0,13.4,1505.3,324.6,-0.7,1.8,2470.383,13.32,0.022,12.8
2020-07-20T04:07:03,42.805,6.029,0.003,-0.01,0.0,104.0,106.0,101.0,13.4,1505.3,325.4,-0.7,1.8,2470.363,13.32,0.01,163.3
2020-07-20T04:10:03,42.805,6.029,-0.002,0.003,-0.003,103.0,106.0,100.0,13.4,1505.3,326.4,-0.7,1.8,2470.416,13.33,0.003,326.3
2020-07-20T04:13:03,42.805,6.029,-0.02,-0.018,-0.03,103.0,107.0,101.0,13.4,1505.3,325.0,-0.7,1.8,2470.382,13.33,0.026,228.0
2020-07-20T04:16:03,42.805,6.029,-0.011,-0.005,-0.021,104.0,106.0,102.0,13.4,1505.3,327.4,-0.7,1.8,2470.383,13.33,0.012,245.6
2020-07-20T04:19:03,42.805,6.029,-0.013,0.004,-0.014,102.0,107.0,102.0,13.3,1505.3,325.4,-0.7,1.9,2470.386,13.33,0.013,287.1
2020-07-20T04:22:03,42.805,6.029,-0.029,-0.004,-0.045,104.0,105.0,101.0,13.4,1505.3,327.3,-0.7,1.8,2470.404,13.33,0.029,262.2
2020-07-20T04:25:03,42.805,6.029,-0.012,0.004,-0.027,103.0,107.0,100.0,13.4,1505.3,323.6,-0.7,1.9,2470.4,13.33,0.012,288.4
2020-07-20T04:28:03,42.805,6.029,-0.011,-0.009,-0.029,103.0,107.0,100.0,13.4,1505.3,326.4,-0.7,1.8,2470.401,13.33,0.014,230.7
2020-07-20T04:31:03,42.805,6.029,-0.02,0.009,-0.007,104.0,105.0,101.0,13.4,1505.3,328.4,-0.7,1.9,2470.361,13.33,0.021,294.2
2020-07-20T04:34:03,42.805,6.029,-0.007,0.004,0.01,104.0,107.0,101.0,13.4,1505.3,323.2,-0.7,1.8,2470.376,13.33,0.008,299.7
2020-07-20T04:37:03,42.805,6.029,-0.019,-0.005,0.007,104.0,107.0,101.0,13.4,1505.3,326.5,-0.7,1.9,2470.369,13.33,0.019,255.3
2020-07-20T04:40:03,42.805,6.029,0.004,0.006,0.007,104.0,106.0,100.0,13.4,1505.3,327.7,-0.7,1.9,2470.436,13.33,0.007,33.7
2020-07-20T04:43:03,42.805,6.029,0.027,-0.009,0.003,104.0,108.0,102.0,13.4,1505.3,326.7,-0.7,1.8,2470.399,13.33,0.028,108.4
2020-07-20T04:46:03,42.805,6.029,-0.029,-0.002,-0.02,104.0,106.0,101.0,13.4,1505.3,326.8,-0.7,1.8,2470.395,13.33,0.029,266.1
2020-07-20T04:49:03,42.805,6.029,0.007,0.011,-0.002,104.0,106.0,101.0,13.4,1505.3,325.2,-0.7,1.8,2470.377,13.33,0.013,32.5
2020-07-20T04:52:03,42.805,6.029,-0.035,0.019,-0.004,103.0,108.0,101.0,13.4,1505.3,328.5,-0.7,1.8,2470.421,13.33,0.039,298.5
2020-07-20T04:55:03,42.805,6.029,-0.043,0.015,-0.048,104.0,106.0,102.0,13.3,1505.3,327.9,-0.7,1.8,2470.393,13.33,0.045,289.2
2020-07-20T04:58:03,42.805,6.029,-0.01,-0.023,-0.019,102.0,107.0,101.0,13.3,1505.3,327.2,-0.7,1.9,2470.361,13.33,0.025,203.5
2020-07-20T05:04:03,42.805,6.029,-0.052,-0.014,-0.055,104.0,106.0,101.0,13.4,1505.3,326.9,-0.7,1.9,2470.459,13.31,0.053,254.9
2020-07-20T05:07:03,42.805,6.029,-0.034,0.009,-0.022,104.0,107.0,101.0,13.3,1505.3,324.0,-0.7,1.8,2470.425,13.32,0.035,284.8
2020-07-20T05:10:03,42.805,6.029,-0.028,-0.017,-0.032,102.0,111.0,101.0,13.4,1505.3,324.5,-0.7,1.8,2470.463,13.32,0.032,238.7
2020-07-20T05:13:03,42.805,6.029,0.008,-0.019,-0.019,103.0,108.0,101.0,13.4,1505.3,325.2,-0.7,1.8,2470.451,13.33,0.02,157.2
2020-07-20T05:16:03,42.805,6.029,-0.032,0.01,-0.012,105.0,108.0,102.0,13.3,1505.3,328.0,-0.8,1.8,2470.42,13.33,0.033,287.4
2020-07-20T05:19:03,42.805,6.029,-0.007,0.0,-0.014,104.0,107.0,102.0,13.4,1505.3,324.2,-0.7,1.8,2470.433,13.33,0.007,270.0
2020-07-20T05:22:02,42.805,6.029,-0.014,-0.004,-0.018,104.0,108.0,101.0,13.3,1505.3,326.8,-0.7,1.8,2470.491,13.33,0.014,254.1
2020-07-20T05:25:03,42.805,6.029,-0.004,-0.027,-0.002,104.0,108.0,102.0,13.3,1505.3,325.7,-0.7,1.8,2470.445,13.33,0.027,188.4
2020-07-20T05:28:03,42.805,6.029,-0.034,0.006,-0.018,105.0,107.0,102.0,13.4,1505.3,323.2,-0.7,1.8,2470.414,13.33,0.034,280.0
2020-07-20T05:31:03,42.805,6.029,-0.023,0.004,-0.017,105.0,107.0,102.0,13.4,1505.3,324.0,-0.7,1.8,2470.417,13.33,0.023,279.9
2020-07-20T05:34:03,42.805,6.029,-0.023,0.003,-0.041,103.0,109.0,101.0,13.4,1505.3,324.2,-0.7,1.8,2470.435,13.33,0.023,277.4
2020-07-20T05:37:03,42.805,6.029,-0.025,0.009,-0.01,103.0,107.0,101.0,13.4,1505.3,322.7,-0.7,1.8,2470.474,13.33,0.026,289.8
2020-07-20T05:40:03,42.805,6.029,-0.027,0.013,0.002,104.0,107.0,102.0,13.4,1505.3,324.3,-0.7,1.8,2470.409,13.33,0.029,295.7
2020-07-20T05:43:03,42.805,6.029,-0.007,0.0,0.016,104.0,106.0,101.0,13.4,1505.3,325.0,-0.7,1.8,2470.416,13.33,0.007,270.0
2020-07-20T05:46:03,42.805,6.029,0.016,0.005,-0.012,104.0,107.0,101.0,13.3,1505.3,324.1,-0.7,1.8,2470.427,13.33,0.016,72.6
2020-07-20T05:49:03,42.805,6.029,-0.036,0.0,-0.023,104.0,107.0,101.0,13.3,1505.3,324.4,-0.7,1.8,2470.441,13.33,0.036,270.0
2020-07-20T05:52:03,42.805,6.029,-0.036,0.009,-0.029,104.0,106.0,102.0,13.4,1505.3,323.0,-0.7,1.8,2470.441,13.33,0.037,284.0
2020-07-20T05:55:03,42.805,6.029,-0.018,-0.012,-0.012,104.0,105.0,103.0,13.4,1505.3,324.2,-0.7,1.8,2470.433,13.33,0.021,236.3
2020-07-20T05:58:03,42.805,6.029,-0.018,-0.009,0.004,104.0,106.0,102.0,13.4,1505.3,323.8,-0.7,1.9,2470.427,13.33,0.02,243.4
2020-07-20T06:04:03,42.805,6.029,-0.027,0.008,-0.025,105.0,108.0,101.0,13.4,1505.3,325.0,-0.7,1.8,2470.491,13.32,0.028,286.5
2020-07-20T06:07:03,42.805,6.029,0.001,0.02,-0.017,105.0,109.0,101.0,13.4,1505.3,327.5,-0.7,1.8,2470.463,13.32,0.02,2.9
2020-07-20T06:10:03,42.805,6.029,-0.032,0.005,-0.04,104.0,108.0,102.0,13.3,1505.3,326.3,-0.7,1.8,2470.455,13.33,0.032,278.9
2020-07-20T06:13:03,42.805,6.029,-0.024,0.012,-0.018,103.0,106.0,101.0,13.4,1505.3,327.5,-0.7,1.8,2470.488,13.33,0.026,296.6
2020-07-20T06:16:03,42.805,6.029,-0.034,0.015,-0.029,105.0,107.0,101.0,13.4,1505.3,323.9,-0.7,1.8,2470.475,13.33,0.037,293.8
2020-07-20T06:19:03,42.805,6.029,-0.018,-0.008,0.008,103.0,108.0,101.0,13.4,1505.3,324.7,-0.7,1.8,2470.452,13.33,0.019,246.0
2020-07-20T06:22:03,42.805,6.029,-0.037,0.017,-0.005,103.0,107.0,102.0,13.4,1505.3,324.6,-0.7,1.9,2470.431,13.33,0.04,294.7
2020-07-20T06:25:03,42.805,6.029,-0.027,0.032,0.009,104.0,107.0,102.0,13.4,1505.3,326.3,-0.7,1.8,2470.471,13.33,0.041,319.8
2020-07-20T06:28:03,42.805,6.029,-0.03,0.002,0.016,103.0,108.0,100.0,13.4,1505.3,325.2,-0.7,1.8,2470.508,13.33,0.03,273.8
2020-07-20T06:31:03,42.805,6.029,-0.031,-0.001,0.008,103.0,107.0,102.0,13.3,1505.3,324.5,-0.7,1.9,2470.468,13.33,0.031,268.2
2020-07-20T06:34:03,42.805,6.029,-0.025,0.006,-0.031,102.0,109.0,101.0,13.4,1505.3,323.4,-0.7,1.8,2470.452,13.33,0.025,283.5
2020-07-20T06:37:03,42.805,6.029,-0.007,0.001,-0.009,103.0,107.0,101.0,13.3,1505.3,326.6,-0.7,1.8,2470.487,13.33,0.007,278.1
2020-07-20T06:40:03,42.805,6.029,0.004,0.005,0.008,103.0,107.0,101.0,13.4,1505.3,324.4,-0.7,1.8,2470.442,13.33,0.006,38.7
2020-07-20T06:43:03,42.805,6.029,-0.022,0.017,-0.02,103.0,108.0,102.0,13.3,1505.4,325.3,-0.7,1.8,2470.495,13.34,0.027,307.7
2020-07-20T06:46:03,42.805,6.029,-0.018,-0.001,-0.011,105.0,109.0,101.0,13.4,1505.3,325.4,-0.7,1.8,2470.461,13.33,0.018,266.8
2020-07-20T06:49:03,42.805,6.029,-0.002,0.007,0.009,103.0,109.0,101.0,13.4,1505.3,325.4,-0.8,1.8,2470.475,13.33,0.007,344.1
2020-07-20T06:52:03,42.805,6.029,-0.015,0.029,-0.014,104.0,108.0,101.0,13.3,1505.3,325.1,-0.7,1.9,2470.443,13.33,0.032,332.6
2020-07-20T06:55:03,42.805,6.029,0.016,-0.001,-0.005,103.0,109.0,102.0,13.4,1505.3,325.4,-0.7,1.8,2470.447,13.33,0.016,93.6
2020-07-20T06:58:03,42.805,6.029,-0.007,-0.006,-0.02,104.0,110.0,101.0,13.4,1505.4,323.6,-0.7,1.8,2470.476,13.34,0.009,229.4
2020-07-20T07:04:03,42.805,6.029,0.003,0.034,-0.009,104.0,109.0,102.0,13.4,1505.3,325.2,-0.8,1.8,2470.494,13.32,0.034,5.0
2020-07-20T07:07:03,42.805,6.029,-0.021,0.006,-0.011,104.0,108.0,102.0,13.4,1505.3,323.8,-0.7,1.8,2470.47,13.32,0.021,285.9
2020-07-20T07:10:03,42.805,6.029,-0.003,0.017,0.007,104.0,106.0,102.0,13.4,1505.3,324.0,-0.7,1.8,2470.482,13.33,0.017,350.0
2020-07-20T07:13:03,42.805,6.029,0.003,0.016,-0.017,104.0,107.0,101.0,13.4,1505.3,327.6,-0.7,1.8,2470.457,13.33,0.016,10.6
2020-07-20T07:16:03,42.805,6.029,-0.025,0.013,-0.01,104.0,106.0,102.0,13.4,1505.3,327.7,-0.7,1.8,2470.467,13.33,0.028,297.5
2020-07-20T07:19:03,42.805,6.029,-0.007,0.018,0.0,104.0,105.0,101.0,13.4,1505.3,323.4,-0.7,1.8,2470.422,13.33,0.019,338.8
2020-07-20T07:22:03,42.805,6.029,-0.008,0.008,-0.016,105.0,106.0,100.0,13.4,1505.3,322.7,-0.7,1.9,2470.461,13.33,0.011,315.0
2020-07-20T07:25:03,42.805,6.029,-0.028,0.011,-0.008,102.0,106.0,102.0,13.4,1505.3,323.7,-0.6,1.8,2470.47,13.33,0.03,291.4
2020-07-20T07:28:03,42.805,6.029,-0.007,0.009,0.017,105.0,106.0,101.0,13.4,1505.3,328.0,-0.7,1.8,2470.446,13.33,0.011,322.1
2020-07-20T07:31:03,42.805,6.029,-0.015,0.013,-0.042,105.0,106.0,102.0,13.3,1505.3,327.0,-0.7,1.8,2470.452,13.33,0.019,310.9
2020-07-20T07:34:03,42.805,6.029,-0.018,0.02,-0.007,104.0,108.0,102.0,13.4,1505.3,325.0,-0.7,1.8,2470.421,13.33,0.026,318.0
2020-07-20T07:37:03,42.805,6.029,-0.044,-0.004,-0.007,105.0,106.0,101.0,13.3,1505.3,323.8,-0.7,1.8,2470.45,13.33,0.044,264.8
2020-07-20T07:40:03,42.805,6.029,-0.027,0.014,-0.016,104.0,106.0,102.0,13.4,1505.3,326.8,-0.7,1.8,2470.471,13.33,0.03,297.4
2020-07-20T07:43:03,42.805,6.029,-0.001,0.001,-0.009,104.0,105.0,101.0,13.4,1505.3,327.2,-0.7,1.9,2470.461,13.33,0.001,315.0
2020-07-20T07:46:03,42.805,6.029,-0.023,0.027,-0.019,104.0,106.0,101.0,13.4,1505.3,328.4,-0.7,1.8,2470.418,13.33,0.035,319.6
2020-07-20T07:49:03,42.805,6.029,0.005,0.003,0.034,104.0,106.0,101.0,13.4,1505.3,325.5,-0.7,1.8,2470.46,13.33,0.005,59.0
2020-07-20T07:52:03,42.805,6.029,-0.012,0.002,-0.003,104.0,107.0,100.0,13.4,1505.3,327.9,-0.7,1.8,2470.436,13.33,0.012,279.5
2020-07-20T07:55:03,42.805,6.029,-0.016,0.028,0.008,103.0,107.0,101.0,13.4,1505.3,327.0,-0.7,1.8,2470.43,13.33,0.032,330.3
2020-07-20T07:58:03,42.805,6.029,-0.011,0.003,-0.002,103.0,107.0,100.0,13.3,1505.3,326.3,-0.7,1.8,2470.457,13.33,0.011,285.3
2020-07-20T08:04:03,42.805,6.029,-0.039,0.013,-0.022,103.0,106.0,102.0,13.4,1505.3,324.5,-0.7,1.8,2470.528,13.31,0.041,288.4
2020-07-20T08:07:03,42.805,6.029,-0.025,0.007,-0.003,104.0,107.0,102.0,13.4,1505.3,324.5,-0.7,1.8,2470.457,13.32,0.025,285.6
2020-07-20T08:10:03,42.805,6.029,-0.028,0.023,-0.006,105.0,106.0,101.0,13.4,1505.3,328.0,-0.7,1.8,2470.432,13.32,0.036,309.4
2020-07-20T08:13:03,42.805,6.029,-0.025,0.019,-0.03,104.0,107.0,101.0,13.3,1505.3,323.7,-0.7,1.8,2470.465,13.33,0.031,307.2
2020-07-20T08:16:03,42.805,6.029,-0.029,0.016,-0.032,103.0,105.0,101.0,13.4,1505.3,326.7,-0.7,1.9,2470.476,13.33,0.033,298.9
2020-07-20T08:19:03,42.805,6.029,-0.006,0.023,0.001,105.0,107.0,102.0,13.3,1505.3,327.5,-0.7,1.8,2470.426,13.33,0.023,345.4
2020-07-20T08:22:03,42.805,6.029,-0.036,0.022,-0.016,104.0,106.0,102.0,13.3,1505.3,324.2,-0.7,1.8,2470.424,13.33,0.042,301.4
2020-07-20T08:25:03,42.805,6.029,-0.004,-0.001,-0.011,103.0,106.0,101.0,13.3,1505.3,324.3,-0.7,1.8,2470.421,13.33,0.004,256.0
2020-07-20T08:28:03,42.805,6.029,-0.043,0.006,-0.051,104.0,106.0,102.0,13.4,1505.3,328.2,-0.7,1.8,2470.351,13.33,0.043,277.9
2020-07-20T08:31:03,42.805,6.029,-0.018,0.017,-0.016,104.0,106.0,102.0,13.4,1505.3,325.4,-0.7,1.8,2470.399,13.33,0.024,313.4
2020-07-20T08:34:03,42.805,6.029,-0.036,0.008,-0.03,103.0,107.0,101.0,13.4,1505.3,325.0,-0.7,1.8,2470.407,13.33,0.036,282.5
2020-07-20T08:37:03,42.805,6.029,0.009,0.0,0.004,105.0,106.0,101.0,13.3,1505.3,323.5,-0.7,1.8,2470.402,13.33,0.009,90.0
2020-07-20T08:43:02,42.805,6.029,-0.015,0.022,0.027,107.0,108.0,100.0,13.4,1505.3,326.7,-0.7,1.8,2470.485,13.31,0.026,325.7
2020-07-20T08:46:03,42.805,6.029,-0.031,0.014,-0.008,104.0,108.0,102.0,13.4,1505.3,325.6,-0.7,1.8,2470.435,13.32,0.034,294.3
2020-07-20T08:49:03,42.805,6.029,-0.005,0.018,0.004,106.0,107.0,102.0,13.4,1505.3,325.0,-0.8,1.8,2470.423,13.32,0.018,344.5
2020-07-20T08:52:03,42.805,6.029,-0.012,0.015,0.012,104.0,108.0,101.0,13.4,1505.3,324.4,-0.7,1.8,2470.38,13.33,0.019,321.3
2020-07-20T08:55:03,42.805,6.029,-0.011,-0.007,-0.017,104.0,108.0,102.0,13.3,1505.3,324.8,-0.7,1.9,2470.435,13.33,0.013,237.5
2020-07-20T08:58:03,42.805,6.029,-0.035,0.01,-0.023,103.0,107.0,102.0,13.3,1505.3,324.2,-0.7,1.8,2470.453,13.33,0.036,285.9
2020-07-20T09:04:03,42.805,6.029,-0.03,0.024,0.004,104.0,106.0,101.0,13.3,1505.3,323.4,-0.7,1.8,2470.435,13.31,0.038,308.7
2020-07-20T09:07:03,42.805,6.029,0.01,0.008,-0.009,104.0,107.0,100.0,13.4,1505.3,328.2,-0.7,1.9,2470.421,13.32,0.012,51.3
2020-07-20T09:10:03,42.805,6.029,-0.009,0.009,0.005,104.0,107.0,101.0,13.4,1505.3,324.8,-0.7,1.8,2470.424,13.32,0.012,315.0
2020-07-20T09:13:03,42.805,6.029,-0.015,-0.006,0.003,104.0,108.0,101.0,13.4,1505.3,326.8,-0.7,1.8,2470.433,13.33,0.016,248.2
2020-07-20T09:16:03,42.805,6.029,-0.019,0.017,-0.003,105.0,107.0,101.0,13.4,1505.3,323.0,-0.7,1.8,2470.399,13.33,0.025,311.8
2020-07-20T09:19:03,42.805,6.029,0.012,0.023,0.004,103.0,108.0,101.0,13.4,1505.3,326.3,-0.7,1.8,2470.391,13.33,0.025,27.6
2020-07-20T09:22:03,42.805,6.029,-0.015,0.004,-0.01,105.0,108.0,102.0,13.3,1505.3,327.1,-0.6,1.8,2470.417,13.33,0.015,284.9
2020-07-20T09:25:03,42.805,6.029,-0.013,-0.005,-0.024,106.0,106.0,102.0,13.4,1505.3,324.7,-0.7,1.9,2470.385,13.33,0.013,249.0
2020-07-20T09:28:03,42.805,6.029,0.016,0.009,-0.033,104.0,108.0,102.0,13.4,1505.3,322.9,-0.7,1.8,2470.381,13.33,0.018,60.6
2020-07-20T09:31:03,42.805,6.029,-0.004,0.011,0.027,104.0,108.0,101.0,13.4,1505.3,325.9,-0.7,1.8,2470.407,13.33,0.011,340.0
2020-07-20T09:34:03,42.805,6.029,-0.029,0.026,-0.02,104.0,107.0,102.0,13.4,1505.3,327.1,-0.7,1.8,2470.387,13.33,0.038,311.9
2020-07-20T09:37:03,42.805,6.029,-0.02,0.0,-0.014,104.0,109.0,101.0,13.4,1505.3,324.4,-0.7,1.8,2470.371,13.33,0.02,270.0
2020-07-20T09:40:03,42.805,6.029,-0.043,0.012,-0.03,104.0,108.0,100.0,13.4,1505.3,323.6,-0.7,1.9,2470.423,13.33,0.044,285.6
2020-07-20T09:43:03,42.805,6.029,-0.017,0.005,-0.013,103.0,107.0,101.0,13.3,1505.3,323.2,-0.7,1.8,2470.361,13.33,0.017,286.4
2020-07-20T09:46:03,42.805,6.029,-0.003,0.002,0.005,103.0,108.0,102.0,13.4,1505.3,323.0,-0.7,1.9,2470.386,13.33,0.003,303.7
2020-07-20T09:49:03,42.805,6.029,-0.019,0.028,-0.007,105.0,107.0,103.0,13.4,1505.3,328.6,-0.7,1.8,2470.361,13.33,0.033,325.8
2020-07-20T09:52:03,42.805,6.029,-0.018,0.004,-0.02,103.0,107.0,102.0,13.4,1505.3,326.7,-0.7,1.9,2470.358,13.33,0.018,282.5
2020-07-20T09:55:03,42.805,6.029,-0.029,-0.006,-0.026,102.0,109.0,101.0,13.4,1505.3,324.5,-0.7,1.8,2470.365,13.33,0.029,258.3
2020-07-20T09:58:03,42.805,6.029,-0.015,0.014,-0.015,104.0,109.0,101.0,13.4,1505.3,323.8,-0.7,1.8,2470.359,13.33,0.02,313.0